SCP
0 0 0 0 0 0 0 0 0 0 0 0 0 0 0 0 0 0 0 0 -0 -1 -0 -0 -0 -0 -0 -0 -0 -0 -1 -1 -1 -1 -0 -0 -0 -0 -0 -0 -0 0 -0 -0 -0 -0 -0 -0 -0
0 0 0 0 0 0 0 0 0 0 0 0 0 0 0 0 0 0 -0 -0 -1 -0 -0 -0 -0 -0 -0 -0 -0 -0 -0 -0 -1 -1 -0 -0 -0 -0 -0 -0 -0 0 0 0 0 0 -0 -0 -0
0 0 0 0 0 0 0 0 -0 0 0 0 0 0 0 1 1 -0 0 0 -0 -0 -0 -0 -0 -0 -0 -0 -0 -0 -0 -0 -0 -0 -0 -0 -0 -0 -0 -0 -0 0 -0 -0 -0 0 0 -0 -0
0 0 0 0 0 0 0 0 0 0 0 0 0 0 0 1 1 0 0 0 -0 -0 -0 -0 -0 -0 -0 -0 -0 -0 -0 -0 -0 -0 -0 -0 -0 -0 -0 -0 -0 0 -0 0 0 0 -0 -0 0
0 0 0 0 0 0 0 0 0 0 0 0 0 0 0 1 1 0 0 0 0 -0 -0 -0 -0 -0 -0 -0 -0 -0 -0 -0 -0 -0 -0 0 -0 -0 -0 -0 -0 -0 -0 -0 -0 -0 -0 -0 0
0 0 0 0 0 0 0 0 0 0 0 0 0 0 0 0 1 0 0 0 0 0 0 0 -0 -0 -0 -0 -0 -0 -0 -0 -0 -0 -0 -0 -0 -0 0 0 0 0 0 0 -0 -0 -0 -0 -0
0 0 0 0 0 0 0 0 0 0 0 0 0 0 0 0 0 0 0 0 0 0 0 0 -0 -0 -0 -0 0 -0 -0 -0 -0 -0 -0 -0 0 0 0 0 0 0 0 0 0 0 0 -0 0
0 0 0 0 0 0 0 0 0 0 0 0 0 0 0 0 0 1 0 0 0 0 0 0 0 -0 -0 0 0 0 -0 -0 -0 -0 -0 0 0 0 0 0 0 0 0 0 0 0 0 0 0
0 0 0 0 0 0 0 0 0 0 0 0 0 0 0 -0 0 1 1 0 0 0 0 0 0 0 0 0 0 0 0 0 0 0 0 0 0 0 0 0 0 0 0 0 0 0 0 0 0
0 0 0 0 0 0 0 0 0 0 0 0 0 0 0 -1 -0 1 1 1 0 0 0 0 0 0 0 0 0 0 0 0 0 0 0 0 0 0 0 0 0 0 0 0 0 0 0 0 0
0 0 0 0 0 0 0 0 0 0 0 0 0 0 0 0 -0 1 0 0 -0 -0 1 0 0 0 0 0 1 1 0 0 0 0 0 0 0 0 0 0 0 0 0 0 0 0 0 0 0
0 0 0 0 0 0 0 0 0 0 0 0 0 0 0 1 0 1 0 -0 -0 -0 -0 -0 0 0 1 1 1 1 1 1 1 0 0 0 0 0 0 0 0 0 0 0 0 0 0 0 0
0 0 0 0 0 0 0 0 0 0 0 0 0 0 0 0 1 1 1 0 0 -0 -0 -0 0 1 1 1 1 1 1 1 1 1 1 0 0 0 0 0 0 0 0 0 0 0 0 0 0
0 0 0 0 0 0 0 0 0 0 0 0 0 0 0 0 0 2 1 0 0 0 0 0 1 1 1 1 1 1 1 1 1 1 1 1 1 1 0 1 1 0 0 0 0 0 0 0 0
0 0 0 0 0 0 0 0 0 0 0 0 0 0 0 0 0 1 1 0 0 1 1 1 1 1 1 1 1 1 1 1 1 1 1 1 0 0 0 1 1 0 0 0 1 1 1 1 1
0 0 0 0 0 0 0 0 0 0 0 0 0 0 0 0 1 1 0 1 1 1 1 1 1 1 1 1 1 1 1 1 1 1 1 1 1 1 1 1 1 0 0 0 1 2 1 1 1
0 0 0 0 0 0 0 0 0 0 0 0 0 0 0 0 1 1 0 1 1 1 1 1 1 1 1 2 1 1 1 1 1 1 1 1 1 1 1 0 1 1 1 0 1 1 1 1 2
0 0 0 0 0 0 0 0 0 0 0 0 0 0 0 0 0 1 0 1 0 0 0 1 1 1 1 1 1 1 0 0 0 1 0 0 1 1 1 1 1 1 1 1 2 2 2 1 1
0 0 0 0 0 0 0 0 0 0 0 0 0 0 0 0 0 0 0 0 0 0 0 0 1 1 1 1 1 0 0 0 0 0 1 1 1 1 1 1 1 2 2 2 2 2 1 1 1
0 0 0 0 0 0 0 0 0 0 0 0 0 0 0 0 0 0 0 0 0 0 0 0 1 1 1 1 1 1 1 1 1 1 1 1 1 1 1 1 1 1 1 1 1 1 1 1 1
0 0 0 0 0 0 0 0 0 0 0 0 0 0 0 0 0 0 0 0 0 0 0 1 1 1 1 1 1 1 1 1 1 1 1 1 0 0 0 0 0 0 0 0 0 0 0 0 0
0 0 0 0 0 0 0 0 0 0 0 0 0 0 0 0 0 0 0 0 0 1 1 1 1 1 1 1 1 2 2 2 1 1 0 0 0 0 0 0 0 1 0 0 0 0 0 0 0
0 0 0 0 0 0 0 0 0 0 0 0 0 0 0 0 0 0 0 0 0 0 0 0 0 0 1 1 1 1 1 1 1 0 0 0 0 0 0 0 0 1 1 0 0 0 0 0 0
0 0 0 0 0 0 0 0 0 0 0 0 0 0 0 0 0 0 0 0 0 0 0 0 1 1 1 1 1 1 1 1 1 1 0 0 0 0 0 0 0 0 0 0 0 0 0 0 0
0 0 0 0 0 0 0 0 0 0 0 0 0 0 0 0 0 0 0 0 0 0 0 0 0 0 0 0 0 0 0 0 0 0 0 0 0 0 0 0 0 0 0 0 0 0 0 0 0
0 0 0 0 0 0 0 0 0 0 0 0 0 0 0 0 0 0 0 0 0 0 0 0 0 0 0 0 0 0 0 0 0 0 0 0 0 0 0 0 0 0 0 0 0 0 0 0 0
0 0 0 0 0 0 0 0 0 0 0 0 0 0 0 0 0 0 0 0 0 0 0 0 0 0 0 0 0 0 0 0 0 0 0 0 0 0 0 0 0 0 0 0 0 0 0 0 0
0 0 0 0 0 0 0 0 0 0 0 0 0 0 0 0 0 0 0 0 0 0 0 0 0 0 0 0 0 0 0 0 0 0 0 0 0 0 0 0 0 0 0 0 0 0 0 0 0
0 0 0 0 0 0 0 0 0 0 0 0 0 0 0 0 0 0 0 0 0 0 0 0 0 0 0 0 0 0 0 0 0 0 0 0 0 0 0 0 0 0 0 0 0 0 0 0 0
0 0 0 0 0 0 0 0 0 0 0 0 0 0 0 0 0 0 0 0 0 0 0 0 0 0 0 0 0 0 0 0 0 0 0 0 0 0 0 0 0 0 0 0 0 0 0 0 0
Wind_Speed_500mb
24 21 16 6 8 5 16 11 3 10 7 4 16 9 15 7 7 12 12 36 46 58 59 54 49 44 41 39 43 47 48 46 42 37 31 25 24 30 37 33 31 28 26 26 25 24 23 24 26
19 16 13 4 12 19 23 12 19 15 1 18 11 14 4 6 2 1 13 35 58 60 61 57 51 45 41 38 40 42 43 42 39 35 29 26 28 32 37 33 28 26 25 25 24 24 25 25 29
14 18 12 8 11 31 25 12 16 13 16 5 9 7 6 2 2 8 12 38 62 62 60 57 52 47 43 39 38 37 37 38 37 33 30 30 31 35 35 30 26 25 25 25 24 24 25 27 27
15 10 6 13 29 26 42 4 5 1 3 8 18 5 8 5 5 10 26 50 63 66 62 58 52 48 44 40 36 33 30 31 33 33 32 33 34 37 35 29 25 23 24 23 22 22 23 24 21
21 7 8 13 32 16 20 23 10 18 15 3 21 17 19 14 12 18 31 52 64 68 64 60 55 50 45 40 34 31 28 29 32 32 31 32 35 38 35 30 25 23 23 22 22 20 20 20 17
10 5 9 33 29 25 21 19 17 17 16 14 17 22 8 8 10 19 43 50 63 67 67 63 58 52 48 42 36 31 27 25 28 29 29 32 36 36 34 29 26 23 22 21 21 21 20 20 19
12 9 21 13 17 23 16 15 28 34 39 40 24 14 7 9 8 20 51 56 69 67 67 66 62 56 50 45 40 34 28 24 23 25 27 29 33 35 32 30 27 24 22 21 21 21 23 24 23
11 7 15 16 22 19 7 10 21 15 14 6 10 9 6 16 12 24 44 52 70 69 67 68 65 62 56 51 43 37 31 25 21 20 23 26 28 30 30 30 28 26 24 21 22 23 24 24 26
17 14 24 25 20 12 10 13 13 10 19 11 6 11 19 25 15 34 48 44 57 68 69 69 69 66 61 53 47 42 38 34 30 25 23 24 26 27 27 30 28 29 26 23 23 24 26 26 27
18 18 27 15 25 11 16 24 15 10 15 8 18 19 16 6 21 42 61 62 71 74 74 73 71 67 62 57 52 48 43 40 36 32 29 27 27 29 30 30 31 30 29 27 26 26 26 27 28
22 27 18 19 30 35 35 21 13 16 21 18 21 18 15 10 28 41 48 56 65 61 68 71 68 65 63 61 57 54 51 47 44 39 36 31 29 28 28 29 31 32 32 30 29 28 28 27 27
15 25 28 34 29 23 23 12 10 20 19 18 21 20 17 19 28 40 49 51 59 57 65 68 70 70 67 64 61 58 55 51 49 46 41 38 34 30 28 27 28 31 35 34 34 33 31 30 30
32 18 38 47 30 35 17 15 19 24 19 34 38 41 38 30 32 39 54 58 63 60 64 69 71 70 68 65 60 56 52 49 46 43 43 40 37 33 31 29 30 31 34 36 38 37 35 34 34
16 44 36 27 40 34 34 40 36 22 12 22 22 27 42 38 43 43 56 61 63 63 65 65 66 64 62 59 55 52 48 48 46 43 40 38 36 36 35 34 35 35 34 35 37 38 38 36 34
19 14 21 36 45 23 17 33 27 34 46 48 46 41 39 39 34 52 58 61 62 62 57 57 57 56 55 52 53 53 46 46 43 43 35 35 39 41 39 37 39 38 37 36 38 36 37 37 39
33 24 30 25 19 19 35 26 5 39 45 48 43 36 30 31 39 42 48 57 67 61 44 42 50 54 56 55 53 50 46 41 37 33 32 36 40 39 39 39 40 38 42 40 41 38 37 41 39
27 22 34 20 37 20 30 12 18 45 34 36 39 35 37 36 42 44 46 57 71 60 49 41 38 39 46 51 49 47 40 38 38 38 40 42 41 40 38 44 41 39 43 45 45 42 38 46 41
31 39 18 28 30 47 33 25 18 9 24 47 46 31 34 37 44 39 39 51 63 67 53 45 38 38 39 44 44 46 43 42 41 43 43 40 41 40 41 42 40 40 42 43 44 40 51 61 53
26 22 39 23 13 34 37 29 33 27 16 26 31 20 24 36 35 31 31 41 51 59 51 48 39 33 36 40 43 48 48 45 42 36 36 42 42 35 40 43 41 44 50 54 55 61 64 63 56
17 26 26 18 24 27 23 30 33 25 22 26 31 30 32 38 38 31 32 33 37 49 52 48 42 36 34 34 40 42 42 37 39 39 37 43 44 45 49 56 54 53 56 63 62 59 63 60 65
45 25 23 21 19 10 20 18 22 19 25 22 30 32 31 37 45 46 47 45 45 43 43 43 43 41 35 34 33 36 39 37 36 39 46 46 45 55 52 45 53 60 59 60 62 68 72 76 71
47 41 21 19 23 14 12 8 22 31 28 21 34 29 26 29 39 39 44 50 51 46 46 44 48 48 44 36 32 35 36 32 28 31 35 37 35 35 36 39 42 47 48 50 43 47 50 42 37
27 39 33 20 16 7 13 10 9 9 25 22 7 4 9 18 28 37 41 39 40 48 42 39 37 40 38 33 33 33 35 33 33 34 36 31 24 21 26 33 28 34 34 31 31 23 22 29 45
29 41 30 14 9 17 21 17 14 13 9 11 8 5 2 1 11 28 31 30 32 34 34 30 29 26 25 25 29 31 31 29 30 29 28 27 25 27 30 31 27 32 36 45 35 29 35 45 48
44 50 20 19 16 14 27 21 3 5 1 4 7 8 10 13 16 19 25 28 27 29 28 24 17 17 17 16 16 12 9 12 13 9 7 5 6 13 20 25 26 28 30 30 36 39 40 42 48
54 50 22 29 26 24 20 20 9 4 7 12 17 20 23 28 28 30 28 27 25 23 20 19 23 26 24 21 20 22 21 19 14 9 3 7 12 17 24 29 30 28 30 34 32 34 36 38 41
56 49 24 10 9 18 16 6 6 8 13 18 22 27 30 31 38 45 44 42 42 41 42 43 47 49 46 39 31 23 17 12 5 3 8 12 14 14 17 23 27 31 32 33 35 36 38 38 39
57 47 20 13 22 23 16 14 15 21 19 21 24 31 36 40 48 52 53 54 58 60 61 58 54 49 39 29 20 14 9 5 5 8 9 11 15 18 22 28 32 35 36 38 41 44 45 45 46
40 42 21 11 4 12 17 11 1 25 27 29 28 34 40 47 52 56 66 65 65 62 56 51 44 39 34 27 23 16 11 7 5 4 7 11 16 22 28 32 36 37 41 42 43 44 45 45 44
51 50 36 15 12 4 11 7 4 24 26 36 40 46 47 52 56 61 64 59 58 55 53 49 42 37 32 26 19 12 9 6 6 10 15 19 25 31 36 39 42 45 45 44 45 45 45 45 45
Wind_Direction_500mb
235 236 231 239 238 252 240 211 256 202 191 142 296 276 307 236 292 307 321 174 178 173 168 166 167 167 166 165 160 161 164 166 165 166 166 165 164 160 158 156 152 149 148 146 144 141 141 145 142
220 209 176 150 227 225 243 184 197 230 332 316 319 326 76 136 114 287 121 165 171 173 167 167 168 166 167 168 166 166 169 171 173 174 174 171 169 164 160 155 151 152 149 143 139 134 134 141 140
198 176 163 201 218 223 246 163 207 246 319 355 354 351 355 81 313 160 168 166 169 172 170 169 168 166 167 167 166 167 171 175 179 178 176 175 171 167 161 158 155 156 154 150 145 141 143 141 145
168 144 89 227 220 229 235 199 116 115 334 36 358 310 327 274 269 167 163 164 170 173 172 170 169 168 167 167 167 166 169 175 179 181 178 175 172 168 165 163 159 162 164 161 158 152 151 153 155
166 146 200 230 232 237 240 233 251 284 285 304 347 315 305 286 284 205 170 168 171 173 174 172 171 170 169 170 170 168 168 172 175 177 178 176 173 172 171 170 169 172 173 173 176 173 171 170 175
147 146 204 225 224 236 238 250 259 258 270 281 308 311 291 277 272 193 175 174 175 176 176 176 174 174 175 174 177 177 173 171 174 177 179 179 178 179 180 180 180 182 182 183 190 195 197 201 205
196 186 227 233 249 253 242 224 241 258 263 267 263 266 275 303 262 194 172 177 179 182 180 179 178 180 181 180 182 183 182 176 174 178 181 184 186 189 191 192 192 193 192 193 200 207 214 220 224
189 216 219 222 229 253 219 198 228 225 250 217 201 225 285 328 276 193 181 177 181 184 185 184 184 185 185 185 187 187 186 185 181 179 187 190 194 200 201 203 206 207 206 208 209 213 220 225 232
174 225 233 224 199 228 192 202 220 221 230 218 249 278 292 294 234 196 186 180 182 188 191 190 189 189 190 191 192 194 193 191 189 184 185 194 203 209 216 220 221 219 219 221 221 222 227 230 237
192 223 223 215 222 225 210 220 219 225 216 236 279 289 319 288 207 202 195 190 189 192 194 195 194 194 194 196 197 198 199 200 202 202 201 199 203 209 216 222 225 229 231 233 233 233 235 238 242
201 228 212 215 220 228 247 242 227 227 245 244 261 296 296 253 207 205 202 202 196 197 196 197 199 200 199 199 200 201 203 204 206 209 210 210 210 214 221 230 237 240 244 247 247 248 250 252 257
214 222 210 224 215 221 240 237 214 219 247 264 267 275 266 240 215 205 204 199 197 202 202 200 202 204 204 205 206 207 208 208 208 210 214 217 218 222 226 233 244 247 249 252 255 257 259 263 267
222 208 210 227 223 221 231 224 260 255 256 271 272 272 261 250 234 218 207 201 202 207 205 204 206 207 210 212 212 216 216 217 217 216 219 222 227 231 235 237 240 244 247 249 252 255 261 265 270
211 217 222 225 230 237 247 253 246 259 214 257 259 261 262 249 234 226 209 205 208 211 209 210 211 213 216 218 220 222 223 223 221 221 221 225 233 237 239 242 245 241 241 241 242 248 254 258 262
206 193 221 231 237 237 197 250 227 236 249 261 263 262 255 252 228 223 223 211 211 210 212 216 219 220 220 222 226 225 225 226 230 223 217 227 233 236 241 245 248 248 242 240 238 243 248 254 254
213 234 229 190 183 217 197 250 239 229 232 237 248 250 241 237 247 234 224 221 214 209 206 225 224 227 222 223 226 224 225 229 231 227 230 231 235 240 248 252 254 258 251 240 240 233 239 248 260
197 209 217 211 208 191 196 221 256 221 212 235 247 249 242 244 245 239 222 218 220 214 235 227 215 211 220 226 228 227 227 232 232 229 227 230 238 240 247 261 264 253 253 251 241 243 246 251 247
198 211 187 192 192 213 200 215 231 147 206 232 247 252 242 238 235 236 223 216 223 226 231 228 232 231 225 225 227 226 228 232 232 231 230 234 242 249 253 256 259 261 262 257 258 255 262 262 268
218 193 205 191 175 194 205 205 234 248 219 237 247 233 225 228 222 234 225 218 220 221 229 232 233 225 215 217 219 226 230 230 232 232 231 239 247 251 262 262 262 265 265 268 271 269 268 274 280
197 200 203 193 196 195 190 216 229 222 227 228 237 240 230 230 227 227 235 235 227 220 228 236 232 221 217 221 226 231 237 243 243 238 244 265 256 266 266 272 270 263 262 265 266 268 274 277 282
216 203 180 156 153 197 166 209 214 213 224 220 239 235 234 230 227 225 223 221 226 229 230 230 230 224 230 243 237 239 243 253 256 251 264 271 270 282 277 277 275 283 280 274 271 269 279 285 282
206 203 184 173 182 196 213 210 207 217 203 207 224 226 226 219 225 231 221 225 222 223 230 234 234 232 241 251 241 242 245 248 255 262 274 280 275 276 278 278 282 282 283 287 286 285 282 281 272
205 180 191 187 203 198 182 220 151 177 202 205 179 155 229 231 220 222 225 228 226 227 229 233 240 242 248 245 237 240 249 252 260 275 280 278 271 282 283 289 279 284 280 273 298 293 292 278 274
169 166 179 163 186 235 195 212 189 180 150 144 121 78 36 104 211 212 211 219 224 227 229 230 230 228 229 228 238 242 256 268 267 266 273 270 273 290 296 293 288 285 279 277 283 273 275 270 271
173 158 156 180 198 216 183 192 124 121 12 200 150 106 67 68 86 129 168 189 195 203 208 210 205 199 194 191 190 193 212 237 248 245 240 245 310 303 306 303 299 293 282 280 275 275 276 275 270
191 178 173 176 185 170 176 195 157 70 77 109 109 97 82 76 89 104 130 144 154 157 156 158 157 154 144 138 129 121 118 124 137 150 180 300 312 313 309 309 305 303 305 308 308 306 300 295 291
184 192 181 137 156 160 160 152 179 137 109 107 105 96 89 91 94 101 108 117 124 128 130 133 132 126 125 124 120 118 123 126 120 274 288 299 307 307 308 305 305 305 302 303 303 302 301 297 291
181 175 177 178 165 169 170 175 157 168 144 124 114 107 102 102 98 98 101 109 115 120 123 125 124 122 119 117 112 112 98 64 15 349 336 329 320 316 314 312 308 306 305 303 304 304 300 298 296
180 185 200 122 190 165 156 156 69 155 149 131 119 109 109 103 100 101 105 108 110 112 113 111 112 110 108 105 104 101 93 77 45 342 322 312 315 316 319 317 318 314 310 309 307 304 307 306 305
178 187 181 173 157 82 157 122 74 134 131 126 113 113 109 104 104 106 107 107 106 105 107 104 103 102 97 92 88 85 76 49 352 329 324 324 324 321 319 321 321 321 320 319 316 315 312 309 306
Wind_Speed_850mb
24 21 16 6 8 5 16 11 3 10 7 4 16 9 15 7 7 12 12 36 46 58 59 54 49 44 41 39 43 47 48 46 42 37 31 25 24 30 37 33 31 28 26 26 25 24 23 24 26
19 16 13 4 12 19 23 12 19 15 1 18 11 14 4 6 2 1 13 35 58 60 61 57 51 45 41 38 40 42 43 42 39 35 29 26 28 32 37 33 28 26 25 25 24 24 25 25 29
14 18 12 8 11 31 25 12 16 13 16 5 9 7 6 2 2 8 12 38 62 62 60 57 52 47 43 39 38 37 37 38 37 33 30 30 31 35 35 30 26 25 25 25 24 24 25 27 27
15 10 6 13 29 26 42 4 5 1 3 8 18 5 8 5 5 10 26 50 63 66 62 58 52 48 44 40 36 33 30 31 33 33 32 33 34 37 35 29 25 23 24 23 22 22 23 24 21
21 7 8 13 32 16 20 23 10 18 15 3 21 17 19 14 12 18 31 52 64 68 64 60 55 50 45 40 34 31 28 29 32 32 31 32 35 38 35 30 25 23 23 22 22 20 20 20 17
10 5 9 33 29 25 21 19 17 17 16 14 17 22 8 8 10 19 43 50 63 67 67 63 58 52 48 42 36 31 27 25 28 29 29 32 36 36 34 29 26 23 22 21 21 21 20 20 19
12 9 21 13 17 23 16 15 28 34 39 40 24 14 7 9 8 20 51 56 69 67 67 66 62 56 50 45 40 34 28 24 23 25 27 29 33 35 32 30 27 24 22 21 21 21 23 24 23
11 7 15 16 22 19 7 10 21 15 14 6 10 9 6 16 12 24 44 52 70 69 67 68 65 62 56 51 43 37 31 25 21 20 23 26 28 30 30 30 28 26 24 21 22 23 24 24 26
17 14 24 25 20 12 10 13 13 10 19 11 6 11 19 25 15 34 48 44 57 68 69 69 69 66 61 53 47 42 38 34 30 25 23 24 26 27 27 30 28 29 26 23 23 24 26 26 27
18 18 27 15 25 11 16 24 15 10 15 8 18 19 16 6 21 42 61 62 71 74 74 73 71 67 62 57 52 48 43 40 36 32 29 27 27 29 30 30 31 30 29 27 26 26 26 27 28
22 27 18 19 30 35 35 21 13 16 21 18 21 18 15 10 28 41 48 56 65 61 68 71 68 65 63 61 57 54 51 47 44 39 36 31 29 28 28 29 31 32 32 30 29 28 28 27 27
15 25 28 34 29 23 23 12 10 20 19 18 21 20 17 19 28 40 49 51 59 57 65 68 70 70 67 64 61 58 55 51 49 46 41 38 34 30 28 27 28 31 35 34 34 33 31 30 30
32 18 38 47 30 35 17 15 19 24 19 34 38 41 38 30 32 39 54 58 63 60 64 69 71 70 68 65 60 56 52 49 46 43 43 40 37 33 31 29 30 31 34 36 38 37 35 34 34
16 44 36 27 40 34 34 40 36 22 12 22 22 27 42 38 43 43 56 61 63 63 65 65 66 64 62 59 55 52 48 48 46 43 40 38 36 36 35 34 35 35 34 35 37 38 38 36 34
19 14 21 36 45 23 17 33 27 34 46 48 46 41 39 39 34 52 58 61 62 62 57 57 57 56 55 52 53 53 46 46 43 43 35 35 39 41 39 37 39 38 37 36 38 36 37 37 39
33 24 30 25 19 19 35 26 5 39 45 48 43 36 30 31 39 42 48 57 67 61 44 42 50 54 56 55 53 50 46 41 37 33 32 36 40 39 39 39 40 38 42 40 41 38 37 41 39
27 22 34 20 37 20 30 12 18 45 34 36 39 35 37 36 42 44 46 57 71 60 49 41 38 39 46 51 49 47 40 38 38 38 40 42 41 40 38 44 41 39 43 45 45 42 38 46 41
31 39 18 28 30 47 33 25 18 9 24 47 46 31 34 37 44 39 39 51 63 67 53 45 38 38 39 44 44 46 43 42 41 43 43 40 41 40 41 42 40 40 42 43 44 40 51 61 53
26 22 39 23 13 34 37 29 33 27 16 26 31 20 24 36 35 31 31 41 51 59 51 48 39 33 36 40 43 48 48 45 42 36 36 42 42 35 40 43 41 44 50 54 55 61 64 63 56
17 26 26 18 24 27 23 30 33 25 22 26 31 30 32 38 38 31 32 33 37 49 52 48 42 36 34 34 40 42 42 37 39 39 37 43 44 45 49 56 54 53 56 63 62 59 63 60 65
45 25 23 21 19 10 20 18 22 19 25 22 30 32 31 37 45 46 47 45 45 43 43 43 43 41 35 34 33 36 39 37 36 39 46 46 45 55 52 45 53 60 59 60 62 68 72 76 71
47 41 21 19 23 14 12 8 22 31 28 21 34 29 26 29 39 39 44 50 51 46 46 44 48 48 44 36 32 35 36 32 28 31 35 37 35 35 36 39 42 47 48 50 43 47 50 42 37
27 39 33 20 16 7 13 10 9 9 25 22 7 4 9 18 28 37 41 39 40 48 42 39 37 40 38 33 33 33 35 33 33 34 36 31 24 21 26 33 28 34 34 31 31 23 22 29 45
29 41 30 14 9 17 21 17 14 13 9 11 8 5 2 1 11 28 31 30 32 34 34 30 29 26 25 25 29 31 31 29 30 29 28 27 25 27 30 31 27 32 36 45 35 29 35 45 48
44 50 20 19 16 14 27 21 3 5 1 4 7 8 10 13 16 19 25 28 27 29 28 24 17 17 17 16 16 12 9 12 13 9 7 5 6 13 20 25 26 28 30 30 36 39 40 42 48
54 50 22 29 26 24 20 20 9 4 7 12 17 20 23 28 28 30 28 27 25 23 20 19 23 26 24 21 20 22 21 19 14 9 3 7 12 17 24 29 30 28 30 34 32 34 36 38 41
56 49 24 10 9 18 16 6 6 8 13 18 22 27 30 31 38 45 44 42 42 41 42 43 47 49 46 39 31 23 17 12 5 3 8 12 14 14 17 23 27 31 32 33 35 36 38 38 39
57 47 20 13 22 23 16 14 15 21 19 21 24 31 36 40 48 52 53 54 58 60 61 58 54 49 39 29 20 14 9 5 5 8 9 11 15 18 22 28 32 35 36 38 41 44 45 45 46
40 42 21 11 4 12 17 11 1 25 27 29 28 34 40 47 52 56 66 65 65 62 56 51 44 39 34 27 23 16 11 7 5 4 7 11 16 22 28 32 36 37 41 42 43 44 45 45 44
51 50 36 15 12 4 11 7 4 24 26 36 40 46 47 52 56 61 64 59 58 55 53 49 42 37 32 26 19 12 9 6 6 10 15 19 25 31 36 39 42 45 45 44 45 45 45 45 45
Wind_Direction_850mb
235 236 231 239 238 252 240 211 256 202 191 142 296 276 307 236 292 307 321 174 178 173 168 166 167 167 166 165 160 161 164 166 165 166 166 165 164 160 158 156 152 149 148 146 144 141 141 145 142
220 209 176 150 227 225 243 184 197 230 332 316 319 326 76 136 114 287 121 165 171 173 167 167 168 166 167 168 166 166 169 171 173 174 174 171 169 164 160 155 151 152 149 143 139 134 134 141 140
198 176 163 201 218 223 246 163 207 246 319 355 354 351 355 81 313 160 168 166 169 172 170 169 168 166 167 167 166 167 171 175 179 178 176 175 171 167 161 158 155 156 154 150 145 141 143 141 145
168 144 89 227 220 229 235 199 116 115 334 36 358 310 327 274 269 167 163 164 170 173 172 170 169 168 167 167 167 166 169 175 179 181 178 175 172 168 165 163 159 162 164 161 158 152 151 153 155
166 146 200 230 232 237 240 233 251 284 285 304 347 315 305 286 284 205 170 168 171 173 174 172 171 170 169 170 170 168 168 172 175 177 178 176 173 172 171 170 169 172 173 173 176 173 171 170 175
147 146 204 225 224 236 238 250 259 258 270 281 308 311 291 277 272 193 175 174 175 176 176 176 174 174 175 174 177 177 173 171 174 177 179 179 178 179 180 180 180 182 182 183 190 195 197 201 205
196 186 227 233 249 253 242 224 241 258 263 267 263 266 275 303 262 194 172 177 179 182 180 179 178 180 181 180 182 183 182 176 174 178 181 184 186 189 191 192 192 193 192 193 200 207 214 220 224
189 216 219 222 229 253 219 198 228 225 250 217 201 225 285 328 276 193 181 177 181 184 185 184 184 185 185 185 187 187 186 185 181 179 187 190 194 200 201 203 206 207 206 208 209 213 220 225 232
174 225 233 224 199 228 192 202 220 221 230 218 249 278 292 294 234 196 186 180 182 188 191 190 189 189 190 191 192 194 193 191 189 184 185 194 203 209 216 220 221 219 219 221 221 222 227 230 237
192 223 223 215 222 225 210 220 219 225 216 236 279 289 319 288 207 202 195 190 189 192 194 195 194 194 194 196 197 198 199 200 202 202 201 199 203 209 216 222 225 229 231 233 233 233 235 238 242
201 228 212 215 220 228 247 242 227 227 245 244 261 296 296 253 207 205 202 202 196 197 196 197 199 200 199 199 200 201 203 204 206 209 210 210 210 214 221 230 237 240 244 247 247 248 250 252 257
214 222 210 224 215 221 240 237 214 219 247 264 267 275 266 240 215 205 204 199 197 202 202 200 202 204 204 205 206 207 208 208 208 210 214 217 218 222 226 233 244 247 249 252 255 257 259 263 267
222 208 210 227 223 221 231 224 260 255 256 271 272 272 261 250 234 218 207 201 202 207 205 204 206 207 210 212 212 216 216 217 217 216 219 222 227 231 235 237 240 244 247 249 252 255 261 265 270
211 217 222 225 230 237 247 253 246 259 214 257 259 261 262 249 234 226 209 205 208 211 209 210 211 213 216 218 220 222 223 223 221 221 221 225 233 237 239 242 245 241 241 241 242 248 254 258 262
206 193 221 231 237 237 197 250 227 236 249 261 263 262 255 252 228 223 223 211 211 210 212 216 219 220 220 222 226 225 225 226 230 223 217 227 233 236 241 245 248 248 242 240 238 243 248 254 254
213 234 229 190 183 217 197 250 239 229 232 237 248 250 241 237 247 234 224 221 214 209 206 225 224 227 222 223 226 224 225 229 231 227 230 231 235 240 248 252 254 258 251 240 240 233 239 248 260
197 209 217 211 208 191 196 221 256 221 212 235 247 249 242 244 245 239 222 218 220 214 235 227 215 211 220 226 228 227 227 232 232 229 227 230 238 240 247 261 264 253 253 251 241 243 246 251 247
198 211 187 192 192 213 200 215 231 147 206 232 247 252 242 238 235 236 223 216 223 226 231 228 232 231 225 225 227 226 228 232 232 231 230 234 242 249 253 256 259 261 262 257 258 255 262 262 268
218 193 205 191 175 194 205 205 234 248 219 237 247 233 225 228 222 234 225 218 220 221 229 232 233 225 215 217 219 226 230 230 232 232 231 239 247 251 262 262 262 265 265 268 271 269 268 274 280
197 200 203 193 196 195 190 216 229 222 227 228 237 240 230 230 227 227 235 235 227 220 228 236 232 221 217 221 226 231 237 243 243 238 244 265 256 266 266 272 270 263 262 265 266 268 274 277 282
216 203 180 156 153 197 166 209 214 213 224 220 239 235 234 230 227 225 223 221 226 229 230 230 230 224 230 243 237 239 243 253 256 251 264 271 270 282 277 277 275 283 280 274 271 269 279 285 282
206 203 184 173 182 196 213 210 207 217 203 207 224 226 226 219 225 231 221 225 222 223 230 234 234 232 241 251 241 242 245 248 255 262 274 280 275 276 278 278 282 282 283 287 286 285 282 281 272
205 180 191 187 203 198 182 220 151 177 202 205 179 155 229 231 220 222 225 228 226 227 229 233 240 242 248 245 237 240 249 252 260 275 280 278 271 282 283 289 279 284 280 273 298 293 292 278 274
169 166 179 163 186 235 195 212 189 180 150 144 121 78 36 104 211 212 211 219 224 227 229 230 230 228 229 228 238 242 256 268 267 266 273 270 273 290 296 293 288 285 279 277 283 273 275 270 271
173 158 156 180 198 216 183 192 124 121 12 200 150 106 67 68 86 129 168 189 195 203 208 210 205 199 194 191 190 193 212 237 248 245 240 245 310 303 306 303 299 293 282 280 275 275 276 275 270
191 178 173 176 185 170 176 195 157 70 77 109 109 97 82 76 89 104 130 144 154 157 156 158 157 154 144 138 129 121 118 124 137 150 180 300 312 313 309 309 305 303 305 308 308 306 300 295 291
184 192 181 137 156 160 160 152 179 137 109 107 105 96 89 91 94 101 108 117 124 128 130 133 132 126 125 124 120 118 123 126 120 274 288 299 307 307 308 305 305 305 302 303 303 302 301 297 291
181 175 177 178 165 169 170 175 157 168 144 124 114 107 102 102 98 98 101 109 115 120 123 125 124 122 119 117 112 112 98 64 15 349 336 329 320 316 314 312 308 306 305 303 304 304 300 298 296
180 185 200 122 190 165 156 156 69 155 149 131 119 109 109 103 100 101 105 108 110 112 113 111 112 110 108 105 104 101 93 77 45 342 322 312 315 316 319 317 318 314 310 309 307 304 307 306 305
178 187 181 173 157 82 157 122 74 134 131 126 113 113 109 104 104 106 107 107 106 105 107 104 103 102 97 92 88 85 76 49 352 329 324 324 324 321 319 321 321 321 320 319 316 315 312 309 306